カタログに戻る

STARLINK-31337

運用中通信VLEO
NORAD 58934·PAYLOAD·🇺🇸 United States

打ち上げ Feb 10, 2024 から Vandenberg Space Force Base

Loading…

次のパス (今後24時間)

TLE

最新Source: CelesTrak SupGP

元期: Sep 15, 2026, 01:53 UTC

1 58934C 24027D   26258.07895833  .00000180  00000+0  53117-5 0  2588
2 58934  53.1589 148.8854 0001292  73.4319 137.2147 15.34393629    12

AllMySatでSTARLINK-31337をリアルタイム追跡

Download on the App Store